Time,TemperatureF,DewpointF,PressureIn,WindDirection,WindDirectionDegrees,WindSpeedMPH,WindSpeedGustMPH,Humidity,HourlyPrecipIn,Conditions,Clouds,dailyrainin,SoftwareType,DateUTC
2013-12-13 00:12:00,60.4,50.0,30.22,NE,42,13.0,19.0,69,0.00,,,0.00,weatherlink.com 1.10,2013-12-13 05:12:00,
2013-12-13 00:27:00,60.3,50.0,30.21,NNE,31,11.0,16.0,70,0.00,,,0.00,weatherlink.com 1.10,2013-12-13 05:27:00,
2013-12-13 00:42:00,60.1,50.0,30.21,NNE,31,9.0,19.0,70,0.00,,,0.00,weatherlink.com 1.10,2013-12-13 05:42:00,
2013-12-13 00:58:00,59.8,50.0,30.20,NE,55,8.0,17.0,71,0.00,,,0.00,weatherlink.com 1.10,2013-12-13 05:58:00,
2013-12-13 01:13:00,59.6,50.0,30.20,NNE,14,10.0,16.0,71,0.00,,,0.00,weatherlink.com 1.10,2013-12-13 06:13:00,
2013-12-13 01:28:00,59.4,50.0,30.20,NNE,30,8.0,17.0,71,0.00,,,0.00,weatherlink.com 1.10,2013-12-13 06:28:00,
2013-12-13 01:43:00,59.1,50.0,30.19,NNE,31,6.0,11.0,72,0.00,,,0.00,weatherlink.com 1.10,2013-12-13 06:43:00,
2013-12-13 01:58:00,58.9,50.0,30.19,NNE,28,8.0,14.0,73,0.00,,,0.00,weatherlink.com 1.10,2013-12-13 06:58:00,
2013-12-13 02:13:00,58.8,50.0,30.19,NE,34,13.0,13.0,73,0.00,,,0.00,weatherlink.com 1.10,2013-12-13 07:13:00,
2013-12-13 02:28:00,58.7,50.0,30.18,NNE,29,9.0,12.0,74,0.00,,,0.00,weatherlink.com 1.10,2013-12-13 07:28:00,
2013-12-13 02:43:00,58.5,50.0,30.18,NNE,31,9.0,13.0,74,0.00,,,0.00,weatherlink.com 1.10,2013-12-13 07:43:00,
2013-12-13 02:58:00,58.4,51.0,30.17,NNE,31,7.0,12.0,75,0.00,,,0.00,weatherlink.com 1.10,2013-12-13 07:58:00,
2013-12-13 03:13:00,58.3,51.0,30.17,NNE,33,7.0,12.0,76,0.00,,,0.00,weatherlink.com 1.10,2013-12-13 08:13:00,
2013-12-13 03:28:00,58.2,51.0,30.16,NE,36,11.0,14.0,76,0.00,,,0.00,weatherlink.com 1.10,2013-12-13 08:28:00,
2013-12-13 03:43:00,58.1,51.0,30.16,NE,35,6.0,12.0,77,0.00,,,0.00,weatherlink.com 1.10,2013-12-13 08:43:00,
2013-12-13 03:58:00,58.0,51.0,30.16,NNE,25,7.0,14.0,77,0.00,,,0.00,weatherlink.com 1.10,2013-12-13 08:58:00,
2013-12-13 04:28:00,57.7,51.0,30.15,NNE,33,9.0,14.0,79,0.00,,,0.00,weatherlink.com 1.10,2013-12-13 09:28:00,
2013-12-13 04:43:00,57.6,51.0,30.15,NNE,29,6.0,10.0,79,0.00,,,0.00,weatherlink.com 1.10,2013-12-13 09:43:00,
2013-12-13 04:58:00,57.4,51.0,30.16,NE,51,7.0,12.0,80,0.00,,,0.00,weatherlink.com 1.10,2013-12-13 09:58:00,
2013-12-13 05:13:00,57.3,52.0,30.16,NE,34,8.0,10.0,81,0.00,,,0.00,weatherlink.com 1.10,2013-12-13 10:13:00,
2013-12-13 05:28:00,57.2,51.0,30.15,NE,39,8.0,12.0,81,0.00,,,0.00,weatherlink.com 1.10,2013-12-13 10:28:00,
2013-12-13 05:43:00,57.2,52.0,30.16,NNE,27,6.0,8.0,82,0.00,,,0.00,weatherlink.com 1.10,2013-12-13 10:43:00,
2013-12-13 05:58:00,57.1,52.0,30.15,NE,41,6.0,9.0,83,0.00,,,0.00,weatherlink.com 1.10,2013-12-13 10:58:00,
2013-12-13 06:13:00,57.2,52.0,30.16,NE,41,6.0,10.0,83,0.00,,,0.00,weatherlink.com 1.10,2013-12-13 11:13:00,
2013-12-13 06:28:00,57.2,52.0,30.17,NE,52,8.0,10.0,84,0.00,,,0.00,weatherlink.com 1.10,2013-12-13 11:28:00,
2013-12-13 06:43:00,57.2,52.0,30.17,NE,47,9.0,11.0,84,0.00,,,0.00,weatherlink.com 1.10,2013-12-13 11:43:00,
2013-12-13 06:58:00,57.3,53.0,30.17,NE,50,7.0,14.0,85,0.00,,,0.00,weatherlink.com 1.10,2013-12-13 11:58:00,
2013-12-13 07:13:00,57.4,53.0,30.17,NE,49,5.0,11.0,85,0.00,,,0.00,weatherlink.com 1.10,2013-12-13 12:13:00,
2013-12-13 07:28:00,57.4,53.0,30.18,NE,41,9.0,11.0,85,0.00,,,0.00,weatherlink.com 1.10,2013-12-13 12:28:00,
2013-12-13 07:43:00,57.7,54.0,30.18,NE,41,7.0,11.0,86,0.00,,,0.00,weatherlink.com 1.10,2013-12-13 12:43:00,
2013-12-13 07:58:00,58.3,54.0,30.18,NE,52,9.0,11.0,86,0.00,,,0.00,weatherlink.com 1.10,2013-12-13 12:58:00,
2013-12-13 08:13:00,59.4,55.0,30.18,NE,52,7.0,11.0,86,0.00,,,0.00,weatherlink.com 1.10,2013-12-13 13:13:00,
2013-12-13 08:28:00,60.6,56.0,30.19,NE,47,7.0,11.0,86,0.00,,,0.00,weatherlink.com 1.10,2013-12-13 13:28:00,
2013-12-13 08:43:00,62.3,58.0,30.19,NE,51,8.0,13.0,85,0.00,,,0.00,weatherlink.com 1.10,2013-12-13 13:43:00,
2013-12-13 08:58:00,63.9,59.0,30.20,ENE,57,10.0,13.0,84,0.00,,,0.00,weatherlink.com 1.10,2013-12-13 13:58:00,
2013-12-13 09:14:00,65.6,60.0,30.20,ENE,68,11.0,13.0,82,0.00,,,0.00,weatherlink.com 1.10,2013-12-13 14:14:00,
2013-12-13 09:29:00,67.2,61.0,30.20,NE,44,7.0,16.0,80,0.00,,,0.00,weatherlink.com 1.10,2013-12-13 14:29:00,
2013-12-13 09:44:00,68.9,62.0,30.20,ENE,59,11.0,14.0,78,0.00,,,0.00,weatherlink.com 1.10,2013-12-13 14:44:00,
2013-12-13 09:59:00,70.9,63.0,30.20,NE,45,6.0,16.0,75,0.00,,,0.00,weatherlink.com 1.10,2013-12-13 14:59:00,
2013-12-13 10:14:00,71.8,63.0,30.21,ENE,60,8.0,15.0,73,0.00,,,0.00,weatherlink.com 1.10,2013-12-13 15:14:00,
2013-12-13 10:29:00,73.1,63.0,30.21,ENE,71,10.0,16.0,71,0.00,,,0.00,weatherlink.com 1.10,2013-12-13 15:29:00,
2013-12-13 10:44:00,74.7,64.0,30.20,NE,52,13.0,16.0,70,0.00,,,0.00,weatherlink.com 1.10,2013-12-13 15:44:00,
2013-12-13 10:59:00,75.2,64.0,30.20,NE,52,9.0,18.0,69,0.00,,,0.00,weatherlink.com 1.10,2013-12-13 15:59:00,
2013-12-13 11:14:00,76.0,65.0,30.19,NE,50,11.0,17.0,68,0.00,,,0.00,weatherlink.com 1.10,2013-12-13 16:14:00,
2013-12-13 11:29:00,77.3,66.0,30.19,NE,54,7.0,17.0,68,0.00,,,0.00,weatherlink.com 1.10,2013-12-13 16:29:00,
2013-12-13 11:44:00,78.1,66.0,30.18,ENE,58,17.0,18.0,66,0.00,,,0.00,weatherlink.com 1.10,2013-12-13 16:44:00,
2013-12-13 11:59:00,79.2,66.0,30.17,NE,40,4.0,20.0,65,0.00,,,0.00,weatherlink.com 1.10,2013-12-13 16:59:00,
2013-12-13 12:14:00,79.9,67.0,30.16,East,81,12.0,19.0,64,0.00,,,0.00,weatherlink.com 1.10,2013-12-13 17:14:00,
2013-12-13 12:29:00,81.2,67.0,30.15,ENE,66,7.0,18.0,63,0.00,,,0.00,weatherlink.com 1.10,2013-12-13 17:29:00,
2013-12-13 12:44:00,82.0,67.0,30.14,ENE,62,9.0,15.0,60,0.00,,,0.00,weatherlink.com 1.10,2013-12-13 17:44:00,
2013-12-13 12:59:00,82.4,67.0,30.14,NE,49,12.0,17.0,60,0.00,,,0.00,weatherlink.com 1.10,2013-12-13 17:59:00,
2013-12-13 13:14:00,82.7,67.0,30.13,ENE,58,12.0,17.0,59,0.00,,,0.00,weatherlink.com 1.10,2013-12-13 18:14:00,
2013-12-13 13:30:00,83.5,68.0,30.12,NE,35,5.0,14.0,59,0.00,,,0.00,weatherlink.com 1.10,2013-12-13 18:30:00,
2013-12-13 14:00:00,84.9,67.0,30.10,NE,54,12.0,16.0,56,0.00,,,0.00,weatherlink.com 1.10,2013-12-13 19:00:00,
2013-12-13 14:15:00,83.8,67.0,30.10,ENE,62,3.0,14.0,57,0.00,,,0.00,weatherlink.com 1.10,2013-12-13 19:15:00,
2013-12-13 14:30:00,83.2,67.0,30.10,ENE,57,8.0,12.0,59,0.00,,,0.00,weatherlink.com 1.10,2013-12-13 19:30:00,
2013-12-13 14:45:00,84.3,67.0,30.09,ENE,74,12.0,12.0,57,0.00,,,0.00,weatherlink.com 1.10,2013-12-13 19:45:00,
2013-12-13 15:00:00,83.4,67.0,30.09,NNE,30,8.0,15.0,57,0.00,,,0.00,weatherlink.com 1.10,2013-12-13 20:00:00,
2013-12-13 15:15:00,82.4,67.0,30.09,ENE,66,12.0,13.0,59,0.00,,,0.00,weatherlink.com 1.10,2013-12-13 20:15:00,
2013-12-13 15:30:00,83.0,67.0,30.09,NE,51,11.0,15.0,58,0.00,,,0.00,weatherlink.com 1.10,2013-12-13 20:30:00,
2013-12-13 15:45:00,83.4,67.0,30.09,East,88,3.0,12.0,59,0.00,,,0.00,weatherlink.com 1.10,2013-12-13 20:45:00,
2013-12-13 16:00:00,83.9,67.0,30.08,NE,52,5.0,13.0,58,0.00,,,0.00,weatherlink.com 1.10,2013-12-13 21:00:00,
2013-12-13 16:15:00,84.2,67.0,30.08,ENE,64,12.0,16.0,57,0.00,,,0.00,weatherlink.com 1.10,2013-12-13 21:15:00,
2013-12-13 16:30:00,83.6,67.0,30.08,NE,47,9.0,14.0,58,0.00,,,0.00,weatherlink.com 1.10,2013-12-13 21:30:00,
2013-12-13 16:45:00,82.5,66.0,30.09,ENE,64,7.0,13.0,58,0.00,,,0.00,weatherlink.com 1.10,2013-12-13 21:45:00,
2013-12-13 17:00:00,80.7,66.0,30.09,ENE,66,6.0,14.0,62,0.00,,,0.00,weatherlink.com 1.10,2013-12-13 22:00:00,
2013-12-13 17:15:00,79.3,66.0,30.09,ENE,59,5.0,11.0,64,0.00,,,0.00,weatherlink.com 1.10,2013-12-13 22:15:00,
2013-12-13 17:30:00,78.3,66.0,30.09,ENE,63,11.0,14.0,66,0.00,,,0.00,weatherlink.com 1.10,2013-12-13 22:30:00,
2013-12-13 17:45:00,77.3,66.0,30.09,NE,54,8.0,13.0,68,0.00,,,0.00,weatherlink.com 1.10,2013-12-13 22:45:00,
2013-12-13 18:00:00,76.2,66.0,30.09,ENE,77,4.0,14.0,70,0.00,,,0.00,weatherlink.com 1.10,2013-12-13 23:00:00,
2013-12-13 18:15:00,75.5,65.0,30.10,ENE,77,9.0,13.0,71,0.00,,,0.00,weatherlink.com 1.10,2013-12-13 23:15:00,
2013-12-13 18:30:00,74.9,65.0,30.10,ENE,60,8.0,14.0,72,0.00,,,0.00,weatherlink.com 1.10,2013-12-13 23:30:00,
2013-12-13 18:45:00,74.5,65.0,30.11,ENE,58,7.0,11.0,73,0.00,,,0.00,weatherlink.com 1.10,2013-12-13 23:45:00,
2013-12-13 19:00:00,73.9,65.0,30.11,East,90,3.0,9.0,74,0.00,,,0.00,weatherlink.com 1.10,2013-12-14 00:00:00,
2013-12-13 19:15:00,73.5,66.0,30.10,NE,56,6.0,12.0,76,0.00,,,0.00,weatherlink.com 1.10,2013-12-14 00:15:00,
2013-12-13 19:30:00,73.1,65.0,30.09,ENE,65,10.0,11.0,76,0.00,,,0.00,weatherlink.com 1.10,2013-12-14 00:30:00,
2013-12-13 19:45:00,72.6,65.0,30.10,ENE,58,9.0,13.0,78,0.00,,,0.00,weatherlink.com 1.10,2013-12-14 00:45:00,
2013-12-13 20:00:00,72.3,65.0,30.11,NE,48,5.0,12.0,78,0.00,,,0.00,weatherlink.com 1.10,2013-12-14 01:00:00,
2013-12-13 20:15:00,72.0,65.0,30.11,NE,51,7.0,11.0,79,0.00,,,0.00,weatherlink.com 1.10,2013-12-14 01:15:00,
2013-12-13 20:30:00,71.8,65.0,30.12,NE,52,6.0,11.0,79,0.00,,,0.00,weatherlink.com 1.10,2013-12-14 01:30:00,
2013-12-13 20:45:00,71.4,65.0,30.12,ENE,58,10.0,11.0,80,0.00,,,0.00,weatherlink.com 1.10,2013-12-14 01:45:00,
2013-12-13 21:00:00,71.0,65.0,30.12,ENE,60,8.0,11.0,81,0.00,,,0.00,weatherlink.com 1.10,2013-12-14 02:00:00,
2013-12-13 21:15:00,70.7,65.0,30.12,ENE,76,10.0,10.0,82,0.00,,,0.00,weatherlink.com 1.10,2013-12-14 02:15:00,
2013-12-13 21:30:00,70.5,65.0,30.12,NE,52,5.0,9.0,82,0.00,,,0.00,weatherlink.com 1.10,2013-12-14 02:30:00,
2013-12-13 21:45:00,70.2,65.0,30.13,ENE,68,5.0,9.0,83,0.00,,,0.00,weatherlink.com 1.10,2013-12-14 02:45:00,
2013-12-13 22:00:00,70.0,65.0,30.13,ENE,63,5.0,9.0,83,0.00,,,0.00,weatherlink.com 1.10,2013-12-14 03:00:00,
2013-12-13 22:15:00,69.9,65.0,30.12,ENE,68,6.0,9.0,84,0.00,,,0.00,weatherlink.com 1.10,2013-12-14 03:15:00,
2013-12-13 22:30:00,69.7,65.0,30.14,ENE,68,7.0,10.0,84,0.00,,,0.00,weatherlink.com 1.10,2013-12-14 03:30:00,
2013-12-13 22:45:00,69.4,65.0,30.12,NE,55,7.0,8.0,85,0.00,,,0.00,weatherlink.com 1.10,2013-12-14 03:45:00,
2013-12-13 23:00:00,69.2,65.0,30.12,ENE,78,5.0,9.0,85,0.00,,,0.00,weatherlink.com 1.10,2013-12-14 04:00:00,
2013-12-13 23:15:00,69.0,65.0,30.11,NE,54,8.0,12.0,86,0.00,,,0.00,weatherlink.com 1.10,2013-12-14 04:15:00,
2013-12-13 23:30:00,69.0,65.0,30.11,NE,56,7.0,11.0,86,0.00,,,0.00,weatherlink.com 1.10,2013-12-14 04:30:00,
2013-12-13 23:45:00,68.9,65.0,30.11,NE,50,6.0,13.0,87,0.00,,,0.00,weatherlink.com 1.10,2013-12-14 04:45:00,